Location: Newark
(31.5350°N, 35.0986°E)
Time: 15:15:57
(UTC+00:00)

Vanguard 1 - Pass Details

Date: 24 September 2019
Orbit: 653 x 3830 km, 34.2° (Epoch: 17 October)

Event Time Altitude Azimuth Distance (km) Brightness Sun altitude
Rises 06:27:47 0° 288° (WNW) 6,807 13.9 36.1°
Reaches altitude 10° 06:33:56 10° 278° (W) 5,211 13.4 37.2°
Maximum altitude 06:44:09 25° 230° (SW) 3,033 12.6 39.1°
Drops below altitude 10° 06:50:48 10° 178° (S) 3,267 13.3 40.3°
Sets 06:53:39 0° 164° (SSE) 3,894 13.7 40.8°
